This demonstration page uses our WeatherBlox Daily Observations layout. Learn more.

Left ArrowRight Arrow

Hourly Observations for March 4, 2020

Temp ( °F °C ) Dew Point ( °F °C ) Humidity (%) Winds ( mph kmh ) Pressure ( in mb ) Visibility ( mi km ) Precip ( " mm )
12:53 am 00:53 Clear 60 15.6 36 2.2 41 41 N 5 7 30.04 1017 10 16 0.00 0.00
1:53 am 01:53 Clear 58 14.4 37 2.8 46 46 NNW 3 6 30.04 1017 10 16 0.00 0.00
2:53 am 02:53 Clear 58 14.4 36 2.2 44 44 NW 3 6 30.04 1017 10 16 0.00 0.00
3:53 am 03:53 Clear 58 14.4 36 2.2 44 44 N 6 9 30.03 1017 10 16 0.00 0.00
4:53 am 04:53 Clear 53 11.7 36 2.2 52 52 NNW 5 7 30.04 1017 10 16 0.00 0.00
5:53 am 05:53 Clear 50 10 36 2.2 59 59 Calm 30.05 1018 10 16 0.00 0.00
6:53 am 06:53 Sunny 50 10 35 1.7 57 57 NW 5 7 30.05 1018 10 16 0.00 0.00
7:53 am 07:53 Sunny 60 15.6 36 2.2 41 41 NNW 7 11 30.06 1018 10 16 0.00 0.00
8:53 am 08:53 Sunny 66 18.9 35 1.7 32 32 N 9 15 30.08 1019 10 16 0.00 0.00
9:53 am 09:53 Sunny 70 21.1 34 1.1 27 27 NNW 8 13 30.08 1019 10 16 0.00 0.00
10:53 am 10:53 Sunny 73 22.8 33 0.6 23 23 undefined N/A 30.07 1018 10 16 0.00 0.00
11:53 am 11:53 Sunny 75 23.9 33 0.6 22 22 N 9 15 30.06 1018 10 16 0.00 0.00
12:53 pm 12:53 Sunny 77 25 34 1.1 21 21 E 5 7 30.04 1017 10 16 0.00 0.00
1:53 pm 13:53 Sunny 78 25.6 32 0 19 19 VRB 3 6 30.02 1017 10 16 0.00 0.00
2:53 pm 14:53 Sunny 80 26.7 34 1.1 19 19 Calm 30.00 1016 10 16 0.00 0.00
3:53 pm 15:53 Sunny 80 26.7 30 -1.1 16 16 S 5 7 29.99 1016 10 16 0.00 0.00
4:53 pm 16:53 Sunny 78 25.6 34 1.1 20 20 S 9 15 29.98 1015 10 16 0.00 0.00
5:53 pm 17:53 Sunny 71 21.7 39 3.9 31 31 S 10 17 29.99 1016 10 16 0.00 0.00
6:53 pm 18:53 Clear 65 18.3 40 4.4 40 40 S 7 11 30.01 1016 10 16 0.00 0.00
7:53 pm 19:53 Clear 62 16.7 40 4.4 44 44 Calm 30.02 1017 10 16 0.00 0.00
8:53 pm 20:53 Clear 60 15.6 40 4.4 47 47 NNE 6 9 30.04 1017 10 16 0.00 0.00
9:53 pm 21:53 Clear 55 12.8 40 4.4 57 57 NNE 5 7 30.06 1018 10 16 0.00 0.00
10:53 pm 22:53 Clear 52 11.1 39 3.9 61 61 NW 3 6 30.06 1018 10 16 0.00 0.00
11:53 pm 23:53 Clear 50 10 39 3.9 66 66 N 3 6 30.06 1018 10 16 0.00 0.00

Powered by AerisWeather